Location: Samoth
(37.3328°N, 88.7876°W)
Time: 15:46:14
(UTC+00:00)

X-37B - Pass Details

Date: 01 October 2021
Orbit: 385 x 389 km, 45.0° (Epoch: 17 October)

Event Time Altitude Azimuth Distance (km) Brightness Sun altitude
Exits shadow 10:25:15 22° 337° (NNW) 896 2.3 -17.8°
Maximum altitude 10:26:27 29° 16° (NNE) 739 2.2 -17.6°
Drops below altitude 10° 10:29:17 10° 80° (E) 1,411 4.8 -17.0°
Sets 10:31:31 0° 92° (E) 2,265 6.1 -16.6°
